This is the latest recevied weather packets stored in our database for station/object K9MWD. If no packets are shown the sender has not sent any weather packets the latest 10 day(s).
| Time | Temp. | Humidity | Pressure | Rain* | Wind** | Luminosity | Snow |
|---|---|---|---|---|---|---|---|
| 1787933880 | 33.89° C | 57% | 1018.6 hPa | 0 mm | - | 712 W/m² | - |
| 1787933574 | 33.33° C | 59% | 1018.5 hPa | 0 mm | - | 697 W/m² | - |
| 1787933269 | 33.33° C | 58% | 1018.4 hPa | 0 mm | - | 688 W/m² | - |
| 1787932969 | 33.33° C | 59% | 1018.4 hPa | 0 mm | - | 673 W/m² | - |
| 1787932668 | 33.33° C | 59% | 1018.6 hPa | 0 mm | - | 659 W/m² | - |
| 1787932367 | 32.78° C | 60% | 1018.5 hPa | 0 mm | - | 649 W/m² | - |
| 1787932062 | 32.78° C | 60% | 1018.5 hPa | 0 mm | - | 635 W/m² | - |
| 1787931761 | 32.78° C | 60% | 1018.6 hPa | 0 mm | - | 622 W/m² | - |
| 1787931456 | 32.78° C | 60% | 1018.5 hPa | 0 mm | - | 607 W/m² | - |
| 1787931150 | 32.22° C | 62% | 1018.3 hPa | 0 mm | - | 589 W/m² | - |
| 1787930850 | 32.22° C | 62% | 1018.3 hPa | 0 mm | - | 577 W/m² | - |
| 1787930550 | 31.67° C | 63% | 1018.4 hPa | 0 mm | - | 561 W/m² | - |
| 1787930244 | 31.67° C | 64% | 1018.4 hPa | 0 mm | - | 546 W/m² | - |
| 1787929944 | 31.67° C | 64% | 1018.4 hPa | 0 mm | - | 530 W/m² | - |
| 1787929638 | 31.67° C | 64% | 1018.3 hPa | 0 mm | - | 513 W/m² | - |
| 1787929338 | 31.67° C | 64% | 1018.3 hPa | 0 mm | - | 497 W/m² | - |
| 1787929036 | 31.11° C | 65% | 1018.5 hPa | 0 mm | - | 480 W/m² | - |
| 1787928732 | 31.11° C | 65% | 1018.2 hPa | 0 mm | - | 465 W/m² | - |
| 1787928429 | 30.56° C | 67% | 1018.3 hPa | 0 mm | - | 448 W/m² | - |
| 1787928129 | 30.56° C | 67% | 1018.2 hPa | 0 mm | - | 430 W/m² | - |
| 1787927829 | 30° C | 68% | 1018.1 hPa | 0 mm | - | 412 W/m² | - |
| 1787927523 | 30° C | 68% | 1018 hPa | 0 mm | - | 394 W/m² | - |
| 1787927218 | 30° C | 69% | 1018 hPa | 0 mm | - | 377 W/m² | - |
| 1787926913 | 30° C | 69% | 1017.9 hPa | 0 mm | - | 358 W/m² | - |
| 1787926608 | 29.44° C | 68% | 1018.1 hPa | 0 mm | - | 340 W/m² | - |
* Rain latest hour (hover to see other rain measurements)
** Current wind speed in m/s (hover to see current wind gust speed)